| time (UTC) | temp F | wind direction | speed knots | gust knots | rain 1hr in | rain 24hr in | rain mn in | humidity % | barometer mb |
| 20260505005141 | 71 | 0 | 0.0 | 0.0 | 0.00 | 0.00 | 0.00 | 43 | 1011.2 |
| 20260505003942 | 71 | 198 | 0.9 | 5.2 | 0.00 | 0.00 | 0.00 | 42 | 1011.1 |
| 20260505002621 | 72 | 0 | 0.0 | 0.9 | 0.00 | 0.00 | 0.00 | 42 | 1011.1 |
| 20260505001903 | 72 | 0 | 0.0 | 4.3 | 0.00 | 0.00 | 0.00 | 41 | 1011.0 |
| 20260505001346 | 72 | 0 | 0.0 | 4.3 | 0.00 | 0.00 | 0.00 | 41 | 1011.0 |
| 20260505000126 | 72 | 0 | 0.0 | 3.5 | 0.00 | 0.00 | 0.00 | 41 | 1011.0 |
| 20260504235034 | 73 | 0 | 0.0 | 6.1 | 0.00 | 0.00 | 0.00 | 43 | 1011.0 |
| 20260504234847 | 73 | 0 | 0.0 | 6.1 | 0.00 | 0.00 | 0.00 | 43 | 1011.0 |
| 20260504233607 | 73 | 0 | 0.0 | 0.0 | 0.00 | 0.00 | 0.00 | 38 | 1010.9 |
| 20260504232215 | 73 | 0 | 0.0 | 3.5 | 0.00 | 0.00 | 0.00 | 38 | 1010.8 |
| 20260504230941 | 74 | 0 | 0.0 | 3.5 | 0.00 | 0.00 | 0.00 | 37 | 1010.8 |
| 20260504230030 | 74 | 213 | 5.2 | 7.8 | 0.00 | 0.00 | 0.00 | 37 | 1010.8 |
| 20260504225637 | 74 | 213 | 5.2 | 7.8 | 0.00 | 0.00 | 0.00 | 37 | 1010.8 |
| 20260504224146 | 74 | 195 | 3.5 | 9.6 | 0.00 | 0.00 | 0.00 | 36 | 1010.8 |
| 20260504222750 | 74 | 147 | 0.9 | 8.7 | 0.00 | 0.00 | 0.00 | 36 | 1010.9 |
| 20260504221341 | 74 | 282 | 1.7 | 11.3 | 0.00 | 0.00 | 0.00 | 35 | 1010.8 |
| 20260504215846 | 74 | 223 | 2.6 | 7.8 | 0.00 | 0.00 | 0.00 | 36 | 1010.8 |
| 20260504214441 | 76 | 0 | 0.0 | 10.4 | 0.00 | 0.00 | 0.00 | 33 | 1010.8 |
| 20260504213218 | 77 | 215 | 2.6 | 12.2 | 0.00 | 0.00 | 0.00 | 32 | 1010.8 |
| 20260504211751 | 76 | 254 | 6.1 | 12.2 | 0.00 | 0.00 | 0.00 | 32 | 1010.8 |
| 20260504210446 | 77 | 194 | 6.1 | 6.1 | 0.00 | 0.00 | 0.00 | 31 | 1010.8 |
| 20260504205246 | 50 | 0 | 0.0 | 0.0 | 0.00 | 0.00 | 0.00 | 57 | 1016.4 |
| 20260504203921 | 50 | 0 | 0.0 | 0.0 | 0.00 | 0.00 | 0.00 | 57 | 1016.4 |
| 20260504202501 | 50 | 0 | 0.0 | 0.0 | 0.00 | 0.00 | 0.00 | 57 | 1016.4 |
| 20260504201106 | 50 | 0 | 0.0 | 0.0 | 0.00 | 0.00 | 0.00 | 57 | 1016.4 |
| 20260504200748 | 50 | 0 | 0.0 | 0.0 | 0.00 | 0.00 | 0.00 | 57 | 1016.4 |
| 20260504195733 | 50 | 0 | 0.0 | 0.0 | 0.00 | 0.00 | 0.00 | 57 | 1016.4 |
| 20260504194436 | 50 | 0 | 0.0 | 0.0 | 0.00 | 0.00 | 0.00 | 57 | 1016.4 |
| 20260504193100 | 50 | 0 | 0.0 | 0.0 | 0.00 | 0.00 | 0.00 | 57 | 1016.4 |
| 20260504191626 | 50 | 0 | 0.0 | 0.0 | 0.00 | 0.00 | 0.00 | 57 | 1016.4 |
| 20260504190351 | 50 | 0 | 0.0 | 0.0 | 0.00 | 0.00 | 0.00 | 57 | 1016.4 |
| 20260504185018 | 50 | 0 | 0.0 | 0.0 | 0.00 | 0.00 | 0.00 | 57 | 1016.4 |
| 20260504184914 | 50 | 0 | 0.0 | 0.0 | 0.00 | 0.00 | 0.00 | 57 | 1016.4 |
| 20260504183511 | 50 | 0 | 0.0 | 0.0 | 0.00 | 0.00 | 0.00 | 57 | 1016.4 |
| 20260504182256 | 50 | 0 | 0.0 | 0.0 | 0.00 | 0.00 | 0.00 | 57 | 1016.4 |
| 20260504180911 | 50 | 0 | 0.0 | 0.0 | 0.00 | 0.00 | 0.00 | 57 | 1016.4 |
| 20260504180025 | 50 | 0 | 0.0 | 0.0 | 0.00 | 0.00 | 0.00 | 57 | 1016.4 |
| 20260504175551 | 50 | 0 | 0.0 | 0.0 | 0.00 | 0.00 | 0.00 | 57 | 1016.4 |
| 20260504174356 | 50 | 0 | 0.0 | 0.0 | 0.00 | 0.00 | 0.00 | 57 | 1016.4 |
| 20260504173033 | 50 | 0 | 0.0 | 0.0 | 0.00 | 0.00 | 0.00 | 57 | 1016.4 |
| 20260504171855 | 50 | 0 | 0.0 | 0.0 | 0.00 | 0.00 | 0.00 | 57 | 1016.4 |
| 20260504171721 | 50 | 0 | 0.0 | 0.0 | 0.00 | 0.00 | 0.00 | 57 | 1016.4 |
| 20260504170401 | 50 | 0 | 0.0 | 0.0 | 0.00 | 0.00 | 0.00 | 57 | 1016.4 |
| 20260504151146 | 50 | 0 | 0.0 | 0.0 | 0.00 | 0.00 | 0.00 | 57 | 1016.4 |
| 20260504140146 | 50 | 0 | 0.0 | 0.0 | 0.00 | 0.00 | 0.00 | 57 | 1016.4 |
| 20260504130611 | 50 | 0 | 0.0 | 0.0 | 0.00 | 0.00 | 0.00 | 57 | 1016.4 |
| 20260504110556 | 50 | 0 | 0.0 | 0.0 | 0.00 | 0.00 | 0.00 | 57 | 1016.4 |
| 20260504080536 | 50 | 0 | 0.0 | 0.0 | 0.00 | 0.00 | 0.00 | 57 | 1016.4 |
| 20260504050726 | 50 | 0 | 0.0 | 0.0 | 0.00 | 0.00 | 0.00 | 57 | 1016.4 |
| 20260504045306 | 50 | 0 | 0.0 | 0.0 | 0.00 | 0.00 | 0.00 | 57 | 1016.4 |
| 20260504043951 | 50 | 0 | 0.0 | 0.0 | 0.00 | 0.00 | 0.00 | 57 | 1016.4 |
| 20260504042701 | 50 | 0 | 0.0 | 0.0 | 0.00 | 0.00 | 0.00 | 57 | 1016.4 |
| 20260504041322 | 50 | 0 | 0.0 | 0.0 | 0.00 | 0.00 | 0.00 | 57 | 1016.4 |
| 20260504035836 | 50 | 0 | 0.0 | 0.0 | 0.00 | 0.00 | 0.00 | 57 | 1016.4 |
| 20260504034542 | 50 | 0 | 0.0 | 0.0 | 0.00 | 0.00 | 0.00 | 57 | 1016.4 |
| 20260504033058 | 50 | 0 | 0.0 | 0.0 | 0.00 | 0.00 | 0.00 | 57 | 1016.4 |
| 20260504031814 | 50 | 0 | 0.0 | 0.0 | 0.00 | 0.00 | 0.00 | 57 | 1016.4 |
| 20260504031636 | 50 | 0 | 0.0 | 0.0 | 0.00 | 0.00 | 0.00 | 57 | 1016.4 |
| 20260504030241 | 50 | 0 | 0.0 | 0.0 | 0.00 | 0.00 | 0.00 | 57 | 1016.4 |
| 20260504024752 | 50 | 0 | 0.0 | 0.0 | 0.00 | 0.00 | 0.00 | 57 | 1016.4 |
| 20260504023516 | 50 | 0 | 0.0 | 0.0 | 0.00 | 0.00 | 0.00 | 57 | 1016.4 |
| 20260504022016 | 50 | 0 | 0.0 | 0.0 | 0.00 | 0.00 | 0.00 | 57 | 1016.4 |
| 20260504020711 | 50 | 0 | 0.0 | 0.0 | 0.00 | 0.00 | 0.00 | 57 | 1016.4 |